Location: Waco, TX
(31.5480°N, 97.1670°W)
Time: 06:35:55
(UTC-05:00)

ISS - Pass Details

Date: 30 September 2022
Orbit: 414 x 417 km, 51.6° (Epoch: 01 October)

Event Time Altitude Azimuth Distance (km) Brightness Sun altitude
Rises 13:57:25 0° 215° (SW) 2,334 0.6 54.2°
Reaches altitude 10° 13:59:31 10° 210° (SSW) 1,476 -0.2 54.1°
Maximum altitude 14:02:46 54° 132° (SE) 508 -2.3 53.9°
Drops below altitude 10° 14:06:02 10° 54° (NE) 1,486 -1.2 53.6°
Sets 14:08:09 0° 50° (NE) 2,352 -0.3 53.5°
